Regional Weather Roundup
Issued by NWS

Home | Current Version | Previous Version | Graphics & Text | Print | Product List | Glossary On
Versions: 1 2 3 4 5 6 7 8 9 10 11 12 13 14 15 16 17 18 19 20 21 22 23 24 25 26 27 28 29 30 31 32 33 34 35 36 37 38 39 40 41 42 43 44 45 46 47 48 49 50
000
ASUS43 KLOT 270212
RWRIL

ILLINOIS REGIONAL WEATHER ROUNDUP
NATIONAL WEATHER SERVICE CHICAGO/ROMEOVILLE IL
900 PM CDT SUN APR 26 2015

NOTE: "FAIR" INDICATES FEW OR NO CLOUDS BELOW 12,000 FEET WITH NO
SIGNIFICANT WEATHER AND/OR OBSTRUCTIONS TO VISIBILITY.

* THESE STATIONS ARE NOT UNDER NWS QUALITY CONTROL. THEY ALSO MAY NOT
  REPORT WEATHER SUCH AS PRECIPITATION OR FOG.

ILZ001-002-007-009-015-016-024-270300-
NORTHWEST ILLINOIS

CITY           SKY/WX    TMP DP  RH WIND       PRES   REMARKS
MOLINE         CLEAR     47  36  65 CALM      30.03R
STERLING*      CLEAR     48  34  57 N5        30.03R
SAVANNA*       CLEAR     51  31  47 CALM      30.03R
$$

ILZ003-004-008-010-011-017-018-270300-
NORTH CENTRAL ILLINOIS

CITY           SKY/WX    TMP DP  RH WIND       PRES   REMARKS
ROCKFORD       CLEAR     50  28  42 E6        30.04R
FREEPORT*      CLEAR     47  28  48 CALM      30.04R
ROCHELLE*      FAIR      47  35  62 E7        30.03R
DE KALB*       CLEAR     44  30  58 CALM      30.02F
PERU*          CLEAR     50  32  49 E8        30.03R
$$

ILZ005-006-012>014-019>023-270300-
NORTHEAST ILLINOIS

CITY           SKY/WX    TMP DP  RH WIND       PRES   REMARKS
CHICAGO-OHARE  PTCLDY    45  24  43 N7        30.02R
CHICAGO-MIDWAY PTCLDY    48  24  39 N8        30.02R
AURORA         CLEAR     46  26  45 NE5       30.02R
LANSING*       CLEAR     43  26  51 N5        30.01S
JOLIET*        CLEAR     47  27  44 NE3       30.02S
WAUKEGAN       CLEAR     44  27  51 N10G17    30.03R
DUPAGE AIRPORT CLEAR     44  25  47 E3        30.01S
KANKAKEE*      CLEAR     43  31  61 NE5       30.02S
WHEELING       CLEAR     44  23  43 N5        30.04R
MORRIS*        CLEAR     46  30  55 CALM      29.99F
ROMEOVILLE*    CLEAR     42  26  53 NE5       30.02S
NORTHERLY ISL    N/A     45  26  47 N9          N/A
$$

LMZ740>746-270300-
SOUTHERN LAKE MICHIGAN

STATION/POSITION SKY/WX   TEMP    WIND        PRES    VSBY  WAVE
                          AIR SEA DIR/SP/G                  HT/PER
                          (F)     (DEG/KT/KT) (MB)    (MI)  (FT/S)
HARRISON CRIB              42     330/ 13/ 14   N/A
BURNHAM HARBOR             45     350/ 10/ 12   N/A
CALUMET HARBOR             44     330/  6/  9   N/A
BURNS HARBOR               44      50/ 10/ 12 1016.3S
MICHIGAN CITY              42     360/  7/ 10   N/A
MICHIGAN CITY 6N           41 45   30/  6/  8   N/A           3/ 4
$$

ILZ025>027-034>036-040-047-049-050-058-095>099-270300-
WEST-CENTRAL ILLINOIS

CITY           SKY/WX    TMP DP  RH WIND       PRES   REMARKS
QUINCY         CLEAR     49  35  58 NE6       30.02R
GALESBURG*     CLEAR     47  36  66 N3        30.03R
MACOMB*        CLEAR     46  38  74 NE7       30.05R
JACKSONVILLE*  CLEAR     51  37  58 NE6       30.02R
PITTSFIELD*    CLEAR     53  36  51 E3        30.03R
$$

ILZ028>032-037-038-041>044-048-051>054-059>061-270300-
CENTRAL ILLINOIS

CITY           SKY/WX    TMP DP  RH WIND       PRES   REMARKS
PONTIAC        CLEAR     46  34  64 E9        30.03R
BLOOMINGTON    CLEAR     45  35  67 E7        30.02R
DECATUR        CLEAR     44  33  65 NE8       30.01R
PEORIA         CLEAR     51  35  54 CALM      30.02R
LACON*         CLEAR     50  34  54 N3        30.01R
LINCOLN*       CLEAR     50  37  60 E7        30.01R
SPRINGFIELD    CLEAR     49  36  61 NE7       30.02R
TAYLORVILLE    FAIR      50  32  50 NE7       30.01R
$$

ILZ033-039-045-046-055>057-062-063-270300-
EAST-CENTRAL ILLINOIS

CITY           SKY/WX    TMP DP  RH WIND       PRES   REMARKS
CHAMPAIGN      CLEAR     48  30  49 NE10      30.00R
DANVILLE*      CLEAR     44  32  62 N9        29.97R
RANTOUL*       CLEAR     47  32  56 N7        30.00R
MATTOON        CLEAR     45  35  68 N8        29.99R
PARIS*         CLEAR     47  32  56 N7        30.00R
$$

ILZ079-100>102-270300-
SOUTHWEST ILLINOIS

CITY           SKY/WX    TMP DP  RH WIND       PRES   REMARKS
BELLEVILLE     CLEAR     54  39  57 N7        29.98R
CAHOKIA*       CLEAR     54  38  54 NE8       29.99R
SPARTA*        CLEAR     52  38  60 N5        29.98R
$$

ILZ064>066-069>071-074>076-080>082-084>086-088>090-092>094-270300-
SOUTH-CENTRAL ILLINOIS

CITY           SKY/WX    TMP DP  RH WIND       PRES   REMARKS
CARBONDALE     CLEAR     53  37  54 N7        29.95R
CAIRO*         CLEAR     56  37  48 N6        29.92R
EFFINGHAM*     CLEAR     51  31  47 N7        30.00R
MARION         CLEAR     54  41  62 N5        29.96R
MT. VERNON     CLEAR     52  36  54 N5        29.98R
CENTRALIA*     CLEAR     51  38  60 N5        29.98R
SALEM*         PTCLDY    51  40  65 N5        29.98R
METROPOLIS*    CLEAR     55  38  52 N3        29.92R
$$

ILZ067-068-072-073-078-083-087-091-270300-
SOUTHEAST ILLINOIS

CITY           SKY/WX    TMP DP  RH WIND       PRES   REMARKS
LAWRENCEVILLE  CLEAR     50  39  66 N7        29.96R
FLORA*         CLEAR     52  38  58 N7        29.98R
FAIRFIELD*     CLEAR     52  39  61 N7        29.95R
HARRISBURG*    CLEAR     52  38  58 N5        29.96R
ROBINSON*      CLEAR     51  37  60 N10       29.97R
CARMI*         CLEAR     51  37  57 N8        29.94R
$$

ABBREVIATIONS USED IN REMARKS
   TC - TEMPERATURE IN CELSIUS
  WCI - WIND CHILL INDEX
   HX - HEAT INDEX
  VSB - VISIBILITY
$$




USA.gov is the U.S. government's official web portal to all federal, state and local government web resources and services.